Total_Precipitation_Accumulation
0.34 0.39 0.26 0.37 0.35 0.58 0.57 0.72 0.57 0.46 0.43 0.49 0.35 0.18 0.08 0.10 0.10 0.11 0.17 0.21 0.22 0.26 0.24 0.18 0.11 0.08 0.05 0.02 0.01 0.01 0.00 0.00 0.00 0.00 0.00 0.00 0.00 0.00 0.00 0.00 0.00 0.00 0.00
0.93 1.08 0.71 0.85 0.70 0.66 0.75 0.72 0.72 0.50 0.19 0.14 0.16 0.13 0.14 0.19 0.27 0.31 0.25 0.22 0.20 0.18 0.14 0.09 0.05 0.03 0.01 0.00 0.00 0.00 0.00 0.00 0.00 0.00 0.00 0.00 0.00 0.00 0.00 0.00 0.00 0.00 0.00
0.98 0.95 0.72 0.74 0.67 0.49 0.54 0.42 0.23 0.19 0.15 0.12 0.12 0.13 0.16 0.17 0.14 0.12 0.14 0.16 0.17 0.13 0.07 0.03 0.01 0.01 0.01 0.00 0.00 0.00 0.00 0.00 0.00 0.00 0.00 0.00 0.00 0.00 0.00 0.00 0.00 0.00 0.00
0.48 0.49 0.36 0.34 0.51 0.26 0.30 0.20 0.12 0.10 0.08 0.09 0.07 0.06 0.05 0.10 0.12 0.13 0.14 0.13 0.07 0.03 0.01 0.01 0.01 0.01 0.00 0.00 0.00 0.01 0.01 0.01 0.01 0.01 0.01 0.00 0.00 0.00 0.00 0.00 0.00 0.00 0.01
0.38 0.38 0.28 0.16 0.18 0.12 0.16 0.15 0.08 0.07 0.04 0.04 0.07 0.12 0.15 0.13 0.12 0.10 0.06 0.03 0.02 0.01 0.00 0.00 0.00 0.00 0.00 0.00 0.00 0.01 0.01 0.02 0.02 0.01 0.00 0.00 0.00 0.00 0.00 0.01 0.01 0.00 0.00
0.11 0.15 0.10 0.08 0.11 0.11 0.10 0.07 0.06 0.06 0.06 0.09 0.19 0.21 0.16 0.13 0.13 0.08 0.04 0.02 0.01 0.00 0.00 0.00 0.00 0.00 0.00 0.00 0.00 0.00 0.01 0.01 0.01 0.01 0.01 0.01 0.00 0.00 0.01 0.02 0.02 0.02 0.02
0.09 0.11 0.06 0.04 0.06 0.06 0.05 0.04 0.03 0.06 0.23 0.33 0.26 0.19 0.12 0.06 0.05 0.02 0.01 0.00 0.00 0.00 0.00 0.00 0.00 0.00 0.00 0.00 0.00 0.00 0.00 0.00 0.00 0.00 0.00 0.00 0.01 0.01 0.03 0.03 0.04 0.05 0.04
0.03 0.03 0.04 0.02 0.03 0.04 0.04 0.03 0.15 0.32 0.33 0.23 0.12 0.04 0.00 0.00 0.00 0.00 0.00 0.00 0.00 0.00 0.00 0.00 0.00 0.00 0.00 0.00 0.00 0.00 0.00 0.00 0.00 0.00 0.00 0.00 0.01 0.01 0.02 0.04 0.06 0.05 0.02
0.01 0.01 0.01 0.00 0.02 0.03 0.14 0.33 0.35 0.21 0.06 0.00 0.00 0.00 0.00 0.00 0.00 0.00 0.00 0.00 0.00 0.00 0.00 0.00 0.00 0.00 0.00 0.00 0.00 0.00 0.00 0.00 0.00 0.00 0.02 0.02 0.02 0.01 0.01 0.03 0.02 0.04 0.03
0.01 0.01 0.01 0.05 0.15 0.25 0.24 0.10 0.01 0.00 0.00 0.00 0.00 0.00 0.00 0.00 0.00 0.00 0.00 0.00 0.00 0.00 0.00 0.00 0.00 0.00 0.00 0.00 0.00 0.00 0.01 0.00 0.01 0.02 0.02 0.02 0.01 0.01 0.01 0.01 0.01 0.05 0.05
0.02 0.04 0.06 0.09 0.07 0.03 0.01 0.00 0.00 0.00 0.00 0.00 0.00 0.00 0.00 0.00 0.00 0.00 0.00 0.00 0.00 0.00 0.00 0.00 0.00 0.00 0.00 0.00 0.01 0.02 0.02 0.01 0.03 0.04 0.04 0.05 0.05 0.06 0.05 0.05 0.06 0.11 0.17
0.01 0.00 0.01 0.01 0.00 0.00 0.00 0.00 0.00 0.00 0.00 0.00 0.00 0.00 0.00 0.00 0.00 0.00 0.00 0.00 0.00 0.00 0.00 0.00 0.01 0.00 0.00 0.00 0.01 0.02 0.02 0.03 0.08 0.08 0.07 0.06 0.06 0.09 0.09 0.07 0.05 0.04 0.05
0.00 0.00 0.00 0.00 0.00 0.00 0.00 0.00 0.00 0.00 0.00 0.00 0.00 0.00 0.00 0.00 0.00 0.00 0.00 0.00 0.00 0.00 0.00 0.00 0.00 0.00 0.01 0.02 0.02 0.01 0.04 0.11 0.13 0.14 0.10 0.05 0.02 0.02 0.03 0.04 0.04 0.02 0.01
0.00 0.00 0.00 0.00 0.00 0.00 0.00 0.00 0.00 0.00 0.00 0.00 0.00 0.00 0.00 0.00 0.00 0.00 0.00 0.00 0.00 0.01 0.02 0.03 0.03 0.04 0.05 0.05 0.05 0.06 0.09 0.08 0.09 0.09 0.07 0.06 0.06 0.08 0.07 0.05 0.06 0.06 0.09
0.00 0.00 0.00 0.00 0.00 0.00 0.00 0.00 0.00 0.00 0.00 0.00 0.00 0.00 0.00 0.00 0.00 0.00 0.00 0.01 0.02 0.03 0.06 0.09 0.07 0.07 0.06 0.06 0.06 0.06 0.09 0.11 0.12 0.09 0.10 0.11 0.13 0.13 0.11 0.09 0.12 0.12 0.12
0.00 0.00 0.00 0.00 0.00 0.00 0.00 0.00 0.00 0.00 0.00 0.00 0.00 0.00 0.00 0.00 0.00 0.00 0.00 0.02 0.04 0.06 0.17 0.14 0.09 0.08 0.08 0.06 0.08 0.09 0.10 0.11 0.10 0.10 0.12 0.12 0.14 0.16 0.17 0.18 0.23 0.23 0.18
0.00 0.00 0.00 0.00 0.00 0.00 0.00 0.00 0.00 0.01 0.00 0.00 0.00 0.00 0.01 0.02 0.02 0.03 0.04 0.05 0.05 0.09 0.19 0.12 0.09 0.08 0.07 0.07 0.10 0.11 0.12 0.10 0.10 0.13 0.12 0.10 0.09 0.10 0.10 0.12 0.10 0.07 0.06
0.00 0.00 0.00 0.00 0.00 0.00 0.00 0.01 0.02 0.03 0.04 0.04 0.01 0.01 0.01 0.01 0.01 0.01 0.01 0.04 0.06 0.05 0.08 0.07 0.07 0.07 0.08 0.08 0.09 0.09 0.08 0.09 0.11 0.09 0.08 0.08 0.10 0.13 0.15 0.12 0.11 0.11 0.09
0.01 0.01 0.02 0.03 0.04 0.05 0.07 0.08 0.08 0.07 0.05 0.03 0.01 0.00 0.00 0.01 0.02 0.03 0.04 0.09 0.09 0.07 0.06 0.08 0.07 0.09 0.13 0.16 0.17 0.19 0.22 0.23 0.25 0.26 0.24 0.25 0.26 0.29 0.28 0.26 0.24 0.19 0.15
0.13 0.15 0.16 0.18 0.18 0.17 0.14 0.09 0.05 0.04 0.02 0.01 0.01 0.00 0.01 0.04 0.06 0.05 0.05 0.08 0.10 0.09 0.08 0.09 0.10 0.12 0.16 0.18 0.20 0.20 0.21 0.20 0.21 0.21 0.19 0.16 0.14 0.15 0.14 0.14 0.14 0.14 0.09
0.30 0.26 0.20 0.17 0.14 0.11 0.08 0.05 0.03 0.02 0.02 0.01 0.01 0.01 0.03 0.07 0.06 0.04 0.04 0.06 0.08 0.08 0.10 0.12 0.13 0.14 0.15 0.15 0.17 0.16 0.15 0.14 0.16 0.19 0.19 0.20 0.20 0.19 0.16 0.16 0.14 0.10 0.08
0.18 0.14 0.11 0.08 0.07 0.06 0.03 0.02 0.02 0.02 0.01 0.01 0.01 0.01 0.01 0.05 0.08 0.10 0.13 0.14 0.16 0.16 0.14 0.14 0.14 0.14 0.14 0.16 0.17 0.19 0.17 0.16 0.14 0.13 0.12 0.12 0.13 0.14 0.14 0.14 0.14 0.12 0.08
0.07 0.06 0.05 0.04 0.04 0.02 0.01 0.01 0.01 0.01 0.01 0.02 0.03 0.07 0.11 0.13 0.14 0.14 0.15 0.14 0.12 0.10 0.10 0.12 0.14 0.16 0.17 0.20 0.23 0.25 0.23 0.16 0.15 0.21 0.21 0.15 0.12 0.12 0.13 0.13 0.13 0.14 0.12
0.05 0.03 0.02 0.02 0.01 0.01 0.01 0.01 0.01 0.01 0.02 0.03 0.04 0.09 0.10 0.10 0.12 0.13 0.12 0.11 0.10 0.09 0.08 0.08 0.09 0.11 0.14 0.15 0.17 0.20 0.21 0.19 0.23 0.24 0.27 0.24 0.18 0.16 0.16 0.15 0.13 0.13 0.12
0.02 0.01 0.01 0.01 0.01 0.01 0.01 0.01 0.01 0.01 0.01 0.02 0.03 0.05 0.06 0.07 0.07 0.07 0.07 0.06 0.05 0.05 0.05 0.05 0.06 0.05 0.06 0.07 0.09 0.11 0.12 0.15 0.18 0.19 0.25 0.25 0.20 0.19 0.20 0.20 0.17 0.17 0.14
0.01 0.00 0.00 0.00 0.00 0.01 0.01 0.01 0.01 0.01 0.01 0.01 0.01 0.02 0.02 0.03 0.04 0.04 0.04 0.03 0.03 0.02 0.02 0.02 0.03 0.02 0.02 0.03 0.04 0.06 0.06 0.07 0.10 0.14 0.19 0.21 0.22 0.23 0.23 0.20 0.20 0.24 0.15